Theta_e
317 317 318 317 317 316 315 316 315 316 316 316 317 317 317 317 317 316 314 317 321 323 323 315 314 317 312 311 315 316 305 302 303 304 306 312 310 314 316 315 317 319 320 324 341
316 316 316 316 316 316 315 314 314 315 316 316 316 317 317 316 314 315 325 329 329 326 316 313 312 315 311 308 310 309 304 303 309 310 309 311 311 312 312 312 313 315 319 324 340
315 315 315 315 315 316 315 315 315 316 316 316 317 317 317 316 314 313 326 326 326 324 317 316 315 313 308 309 307 308 304 308 309 311 312 311 312 314 311 309 312 312 315 319 331
315 315 314 314 315 315 315 315 316 316 316 317 318 318 316 316 303 314 328 326 322 319 317 314 312 307 306 305 308 303 307 308 310 312 311 309 312 311 312 312 315 315 317 318 325
314 314 314 314 314 315 316 316 316 315 316 318 319 317 315 314 309 318 331 329 324 321 316 313 309 307 303 305 307 304 306 308 310 310 311 312 309 310 311 314 316 316 316 316 318
314 314 313 313 314 315 316 316 315 315 317 318 317 314 317 306 315 316 315 316 314 314 313 314 310 311 306 305 304 307 307 307 309 308 309 308 308 310 311 315 314 315 314 315 317
313 313 313 313 314 315 316 315 315 316 318 318 317 317 311 305 314 316 314 312 316 314 311 314 315 310 309 304 308 307 302 305 307 308 307 310 305 306 312 313 312 313 315 315 316
313 312 313 313 314 315 316 315 315 318 320 319 318 319 307 313 315 313 313 312 313 315 314 315 315 311 308 309 306 302 302 297 304 306 307 307 299 307 312 312 311 312 315 316 316
312 312 312 312 314 315 315 315 314 318 320 319 317 317 302 317 309 312 313 308 309 310 311 312 312 308 307 300 297 300 294 295 298 305 305 304 300 306 310 311 311 312 313 315 317
312 311 311 312 313 314 313 314 320 317 320 320 318 308 307 304 309 310 313 310 306 307 305 305 303 301 302 299 290 293 294 297 296 302 303 302 303 307 309 309 309 312 312 313 315
312 311 311 312 313 312 312 315 308 308 310 304 304 303 305 309 311 308 310 308 306 303 296 300 295 292 296 298 297 297 295 295 299 303 301 301 302 306 309 309 309 311 312 314 316
311 311 311 311 312 311 312 307 307 308 302 307 307 306 308 309 303 306 309 301 300 294 297 295 291 296 297 296 295 294 293 293 297 301 302 299 299 304 307 308 310 311 311 313 315
310 310 310 311 311 312 313 308 313 313 304 304 306 305 305 307 302 302 305 302 297 294 294 291 293 297 295 294 292 292 290 292 292 297 299 297 296 299 304 307 308 310 313 314 315
310 309 309 309 309 314 308 311 313 314 300 298 300 303 305 306 300 307 307 302 298 294 295 294 297 295 293 292 293 288 294 293 291 290 287 297 287 297 302 304 306 308 310 311 313
309 309 309 308 311 309 308 312 314 313 291 299 300 308 305 302 302 302 307 303 296 295 295 292 294 293 292 292 294 290 294 292 291 290 291 292 289 294 301 300 304 307 309 311 313
308 308 309 312 312 310 311 314 314 299 286 295 300 298 299 301 301 303 302 305 302 296 297 295 299 296 295 296 295 296 293 293 292 289 283 289 289 290 295 300 303 307 310 311 312
308 307 306 313 307 311 312 312 298 290 298 293 294 298 298 298 299 299 297 296 293 288 289 293 294 298 297 293 295 293 289 283 281 282 281 290 288 292 299 303 304 306 308 311 313
305 304 312 315 313 311 310 304 292 294 293 296 296 297 295 298 297 297 296 293 296 294 289 286 285 293 298 294 291 293 290 283 277 279 282 290 286 292 302 306 307 308 309 311 312
303 316 316 312 312 312 306 294 292 293 294 293 295 294 294 297 296 295 294 293 295 295 287 286 286 296 297 298 296 291 287 293 284 286 284 288 292 298 302 302 304 307 308 309 311
305 314 314 313 315 310 301 292 294 297 296 296 291 295 292 294 294 294 293 296 294 297 297 291 284 293 296 298 298 295 296 287 289 279 279 285 287 290 298 300 303 305 307 310 312
309 308 312 314 313 305 295 294 295 298 298 294 292 293 294 293 294 293 293 296 297 295 297 294 290 289 293 292 290 294 291 292 291 286 282 280 285 295 298 301 305 306 308 310 311
310 301 313 313 301 302 296 295 294 296 299 296 297 297 295 295 292 292 292 295 299 297 292 295 291 284 287 295 299 296 294 294 287 285 288 287 286 302 301 303 299 307 307 308 313
304 305 313 311 295 296 299 297 297 296 296 295 294 298 298 294 288 294 295 300 299 296 293 295 289 282 285 293 296 291 293 294 293 293 287 285 288 303 302 302 304 306 307 307 311
305 299 305 304 303 298 296 296 295 298 296 297 296 298 297 294 296 292 294 298 299 298 300 297 289 286 281 285 290 288 291 293 292 286 288 289 292 297 299 297 300 306 307 308 308
305 300 302 295 298 299 299 297 294 293 296 297 296 297 295 292 293 293 296 297 299 298 298 295 287 289 290 291 291 291 291 292 291 292 288 290 290 293 297 297 301 305 308 307 309
300 298 300 298 302 299 297 297 293 294 294 293 294 296 296 294 295 293 295 295 294 298 296 296 287 289 287 292 292 290 292 292 290 290 289 290 288 296 296 298 299 301 303 304 308
306 305 301 299 300 298 297 295 294 295 296 298 297 295 295 298 301 301 302 301 300 296 295 291 289 287 284 290 291 287 286 288 288 289 288 284 289 293 292 293 294 297 300 303 304
Wind_Speed
21 21 21 21 20 20 21 20 19 19 18 18 18 16 15 15 16 13 7 7 8 6 10 14 15 13 15 18 21 20 16 19 29 28 23 20 22 24 24 19 22 16 15 12 17
23 23 22 23 21 20 20 20 20 19 18 18 17 16 14 12 13 10 5 7 9 6 9 9 11 14 14 15 19 20 18 31 25 24 22 25 25 23 23 21 16 9 12 11 16
23 23 23 24 23 20 20 20 19 18 18 17 17 15 12 11 9 7 1 5 5 4 11 15 17 19 18 19 22 23 28 26 24 24 24 28 26 23 19 18 17 13 15 19 15
24 24 24 24 23 22 21 19 19 17 17 16 15 12 9 9 6 5 9 6 4 5 11 14 14 17 21 22 22 29 31 29 30 27 27 27 27 21 20 20 14 15 12 21 17
24 25 25 24 23 21 20 19 18 16 15 15 11 9 7 8 11 6 12 12 10 10 11 14 16 18 24 23 25 29 29 30 28 29 28 24 26 26 19 22 18 17 15 17 17
24 24 25 24 23 20 19 17 15 14 13 11 7 5 7 1 10 11 14 12 10 14 14 14 18 20 24 26 27 24 29 31 29 29 26 28 27 22 23 20 21 19 17 17 17
24 24 24 25 23 21 18 18 13 12 12 10 7 7 3 10 12 12 14 15 10 9 14 17 17 20 19 23 23 24 30 29 28 26 24 22 29 31 22 23 22 22 19 18 19
25 25 25 25 24 21 18 15 15 13 12 11 8 9 5 4 8 11 15 14 18 12 11 15 15 19 20 19 22 26 27 24 19 27 28 24 30 28 27 24 23 23 20 21 22
26 26 25 25 24 25 19 17 17 14 12 12 9 8 7 6 15 15 15 13 20 18 18 14 11 16 19 18 19 19 22 28 29 27 26 28 35 27 27 22 23 25 23 21 19
27 26 26 25 24 25 26 18 5 9 10 9 12 8 12 15 16 12 12 9 19 20 16 19 18 18 16 16 18 18 22 24 25 22 27 31 32 27 27 27 24 21 16 23 22
27 27 26 25 24 21 16 3 10 5 15 10 8 4 10 12 18 18 17 17 17 18 22 19 16 18 21 22 24 16 23 28 27 30 29 29 27 27 22 22 17 22 14 15 13
27 27 26 26 22 25 10 13 11 6 9 1 3 6 8 16 19 13 18 17 20 21 23 18 19 21 24 23 19 11 13 19 26 28 25 26 28 23 21 16 22 22 14 12 16
26 27 27 25 25 9 4 13 8 4 7 8 0 3 10 16 14 15 18 19 18 22 21 19 23 23 21 21 21 21 19 19 20 25 26 25 23 26 25 21 18 16 14 12 16
26 27 26 27 7 11 11 12 9 4 7 5 3 6 10 17 5 13 15 15 17 19 18 14 17 19 19 21 18 23 22 19 18 16 15 21 18 23 24 23 22 19 17 18 19
26 27 26 10 10 8 14 10 7 3 2 7 6 2 18 12 12 13 12 14 17 15 18 17 17 20 16 21 18 20 22 22 22 21 10 22 14 17 22 25 21 23 23 23 22
28 26 23 2 9 11 12 9 4 8 4 6 13 17 16 10 14 14 13 17 10 13 17 20 15 7 18 20 16 21 19 23 23 17 15 21 16 18 22 23 20 21 21 25 27
31 27 15 10 10 14 11 7 7 7 14 13 20 18 16 13 17 16 17 15 11 16 19 23 20 12 6 13 13 22 8 7 8 12 14 21 17 20 21 27 24 22 22 20 17
33 27 9 10 13 10 8 9 8 15 12 16 15 20 9 18 14 16 18 12 12 16 16 16 19 11 16 21 16 20 9 4 8 9 14 18 7 16 22 25 24 24 21 20 19
31 6 6 6 10 7 9 4 7 10 13 14 17 11 12 17 14 18 16 8 12 12 11 14 12 27 26 9 14 12 17 5 5 9 15 13 18 21 20 24 22 21 22 11 16
9 9 4 11 9 7 8 3 6 7 11 11 13 8 16 16 15 16 9 9 10 15 14 10 16 14 16 23 15 9 10 6 5 8 12 14 16 4 21 16 9 15 12 11 10
5 6 7 11 9 9 5 6 5 8 8 8 13 14 16 17 18 16 8 9 12 15 14 15 4 14 23 14 17 11 6 4 5 2 7 7 5 5 18 19 11 16 22 3 5
6 6 5 9 9 3 7 6 0 7 8 8 8 9 10 15 11 10 12 12 17 15 16 9 6 11 24 25 4 5 10 14 4 8 12 11 9 1 6 18 23 16 12 22 10
8 8 6 8 6 8 6 11 4 6 8 8 9 10 13 8 3 12 12 16 11 17 4 7 3 9 11 2 6 15 22 15 12 10 14 12 9 3 7 7 13 15 13 9 12
7 5 3 7 5 8 10 6 9 7 5 3 11 10 11 11 12 11 23 5 15 13 11 4 4 9 12 20 17 17 23 22 11 5 17 17 20 25 18 19 24 19 15 12 16
5 4 3 6 9 9 10 11 11 12 4 13 6 11 15 7 19 17 20 19 18 3 4 3 6 14 20 21 22 21 23 19 18 17 15 18 21 24 23 15 22 24 14 17 11
5 7 7 12 11 11 9 8 11 11 12 13 14 14 14 14 11 20 22 19 13 9 8 1 6 17 19 16 19 12 13 12 16 17 20 24 33 18 23 21 18 21 18 22 17
6 6 6 10 14 9 6 7 12 12 6 9 11 16 16 17 21 24 22 20 16 15 12 3 4 5 9 21 19 5 8 7 13 16 16 14 18 23 23 21 19 19 16 13 13
Wind_Direction
344 342 339 337 336 333 332 329 326 321 318 315 313 311 309 312 304 254 276 347 328 320 315 290 271 224 238 255 242 233 246 247 245 250 257 265 261 269 275 256 237 221 257 269 118
344 343 341 338 337 334 332 329 325 320 318 313 308 305 306 314 299 278 3 327 330 328 283 252 249 225 232 244 238 233 238 238 250 259 263 262 267 268 263 257 245 229 243 241 139
345 344 343 341 338 334 331 328 325 323 319 314 310 307 303 300 261 74 53 6 358 269 267 288 294 291 245 239 244 234 244 252 255 255 259 277 278 286 294 248 257 233 224 247 157
346 345 344 341 339 335 331 328 326 324 318 313 309 311 308 266 10 66 170 167 178 274 278 280 273 263 261 254 244 251 251 251 258 265 277 277 284 272 275 289 252 246 220 248 184
346 346 345 342 340 334 329 329 328 321 315 316 314 319 279 235 34 52 176 186 214 219 277 287 284 274 266 262 259 253 254 256 254 252 257 268 268 271 262 271 281 276 262 255 264
344 344 344 341 337 333 329 331 324 316 315 329 332 311 255 43 345 333 350 321 315 314 300 299 293 294 286 282 275 277 268 267 255 249 253 256 260 259 254 253 264 269 270 259 262
342 342 341 339 334 332 330 329 319 309 311 323 322 289 352 31 344 318 345 338 342 326 309 303 302 297 291 285 288 280 275 280 272 272 271 272 256 250 249 252 249 253 260 263 259
341 341 340 337 330 324 320 317 306 298 299 302 296 287 50 27 329 338 321 339 334 318 303 305 303 287 281 282 280 278 281 277 264 258 260 262 258 255 253 241 246 250 240 232 248
339 340 338 334 328 318 319 303 287 279 271 281 269 226 52 22 9 342 311 343 324 314 302 285 261 279 280 271 267 253 257 261 266 263 263 244 252 247 252 253 242 233 230 237 225
338 339 337 332 325 322 320 290 285 279 218 253 243 283 33 7 340 301 311 323 325 319 315 290 284 257 276 254 258 291 292 293 286 261 250 259 256 242 239 233 239 255 227 218 230
338 338 335 328 323 319 324 332 351 171 338 14 32 359 347 335 325 337 348 336 320 323 311 313 298 288 276 289 303 258 304 307 307 297 299 301 251 251 241 225 241 244 248 212 230
337 336 332 325 322 314 282 24 19 287 301 225 227 286 0 342 331 10 346 336 334 329 313 308 304 320 325 314 293 273 257 268 295 302 298 311 304 284 291 234 225 240 232 236 245
335 333 328 322 315 287 298 10 341 346 264 171 73 290 334 330 323 353 354 343 333 311 325 318 303 308 306 298 294 281 286 304 291 287 300 295 285 294 267 275 269 270 274 255 229
334 332 326 323 295 316 15 344 353 15 266 78 23 90 323 328 38 342 4 322 315 316 314 294 296 295 290 291 295 292 312 310 297 301 286 301 294 273 277 255 244 247 256 267 267
334 331 323 326 312 323 346 336 13 236 267 33 2 297 341 324 326 6 320 306 299 322 310 312 300 295 309 296 298 295 295 290 287 284 274 284 267 266 261 264 253 226 230 237 241
333 328 330 318 210 316 332 323 221 233 16 353 360 340 328 322 344 353 331 322 320 321 311 334 338 12 277 310 315 313 319 306 285 264 259 257 264 271 271 266 250 250 241 226 222
329 324 314 319 323 329 330 285 251 7 350 359 334 334 306 352 344 339 342 329 1 342 334 322 330 14 322 328 303 290 286 294 267 248 246 251 242 248 278 266 264 267 261 249 233
324 317 256 247 317 328 302 266 282 16 3 339 330 302 322 350 353 340 336 325 16 8 333 345 320 53 314 297 310 306 336 274 303 254 276 269 262 258 229 263 267 275 263 257 227
314 248 247 359 320 314 288 293 4 360 347 332 318 337 352 345 346 345 334 346 1 23 2 322 295 320 302 347 325 303 296 247 264 283 270 253 244 247 268 261 262 287 252 273 262
319 288 286 331 329 298 276 48 343 17 343 332 324 347 330 341 348 338 317 8 4 13 359 316 297 303 303 324 315 292 316 302 281 286 267 259 262 350 344 312 276 263 276 232 244
272 271 45 344 309 255 347 18 345 354 349 338 327 312 327 348 339 330 303 345 23 343 338 321 276 292 303 311 302 308 292 291 244 158 291 338 339 290 287 323 333 13 331 24 52
296 298 36 343 293 48 12 350 98 326 324 318 291 301 342 347 327 320 308 323 352 334 328 322 276 290 291 298 342 345 309 315 275 302 294 281 276 87 223 12 357 335 1 348 38
302 290 109 337 4 351 8 305 315 334 322 312 302 320 326 332 318 299 308 309 334 324 295 335 265 305 302 13 310 338 322 324 314 293 277 292 290 84 4 30 283 292 347 329 338
284 317 357 312 147 341 346 315 315 343 329 318 291 290 288 310 315 287 299 324 337 317 329 181 238 251 273 284 295 294 304 305 290 266 297 288 315 328 25 11 311 332 342 329 333
274 353 22 305 330 331 297 305 299 328 336 310 274 308 335 323 310 292 315 315 315 38 105 143 267 285 289 289 288 276 277 295 310 313 305 315 309 325 324 360 315 314 328 323 309
329 340 345 293 279 280 282 268 326 326 320 303 307 321 316 306 295 304 310 306 306 291 275 204 267 303 294 304 312 308 19 12 357 336 322 320 308 342 327 323 318 314 332 320 313
9 315 278 297 286 277 319 325 307 316 303 298 307 317 308 318 317 299 289 281 269 267 282 281 274 295 288 323 317 99 36 5 312 309 312 305 304 317 317 322 321 308 303 310 323